Dewpoint
28 16 15 17 18 22 25 25 23 20 18 22 20 17 16 16 17 18 18 17 23 13 13 23 22 18 16 15 18 21 29 24 20 24 30 31 33 35 39 42 42 41 41 42 44 45 45 46 46 47 48 48 48 48 48 47 47 47 47 49 47 48 51 51 50 49 49 48 48 48 49 50 49 52 51 52 52 54 55 54 54 54 54 55 58 58
28 16 19 22 24 25 27 31 32 30 30 25 20 17 16 17 18 17 18 28 29 14 10 25 23 20 20 24 27 30 28 22 19 19 22 28 31 33 36 40 42 42 41 43 45 46 46 46 46 47 47 49 47 47 47 46 46 46 48 47 47 49 50 50 50 50 48 48 48 48 48 48 49 49 48 49 52 53 54 53 52 53 52 53 56 58
20 16 20 26 29 32 36 34 32 29 27 26 20 19 18 19 18 19 24 31 31 23 18 25 20 23 26 28 28 31 30 26 23 21 21 23 29 32 34 38 41 41 40 42 43 46 45 46 46 46 47 48 47 47 47 46 46 47 48 47 48 49 49 50 51 50 48 48 49 48 48 50 49 49 51 50 54 53 51 51 52 53 51 53 54 56
15 17 28 29 32 32 32 33 29 27 28 24 20 19 19 21 18 17 26 30 31 24 21 24 19 22 27 29 31 32 33 32 33 32 30 29 27 31 33 36 40 41 40 40 42 44 45 46 45 46 46 47 47 48 46 46 45 47 49 47 48 48 49 50 52 52 49 49 49 49 50 49 47 47 54 50 50 50 50 50 51 52 51 52 53 54
11 16 31 34 32 28 27 29 27 22 21 26 25 22 20 20 20 17 20 28 31 28 29 21 22 19 27 25 25 29 31 32 33 31 32 31 31 32 35 36 40 40 40 40 41 44 45 46 45 45 46 47 47 47 46 45 45 47 47 47 47 48 49 50 54 51 51 51 51 50 49 49 47 48 48 48 49 51 53 50 49 50 51 52 52 53
15 20 31 26 32 30 28 27 27 26 21 25 28 25 25 26 24 25 27 24 22 21 26 20 13 21 25 22 23 25 28 23 27 25 25 28 29 30 29 33 38 42 41 40 40 43 45 45 45 45 46 46 46 47 46 46 46 46 46 47 48 48 49 50 52 50 50 50 50 49 46 43 44 44 44 44 48 48 48 47 48 49 51 52 52 53
16 23 28 26 30 31 28 27 29 27 23 20 25 29 28 26 27 26 22 21 16 14 22 26 15 14 23 22 24 26 24 22 23 24 24 26 28 29 28 30 34 39 41 41 40 42 44 45 45 45 45 46 46 46 47 46 45 45 46 47 48 48 49 50 52 50 50 48 49 49 47 44 43 42 44 45 46 49 48 48 48 49 51 51 53 53
28 22 26 31 30 29 27 25 29 26 22 20 27 28 27 26 26 27 25 22 19 26 27 25 22 14 17 20 23 27 23 22 22 21 22 22 28 27 29 30 32 35 40 41 40 41 44 45 45 44 45 45 45 46 47 46 46 44 45 47 48 49 51 51 51 50 49 47 49 48 47 47 44 43 44 46 46 48 50 48 49 50 50 51 52 52
19 18 21 22 27 25 25 27 30 28 23 23 29 25 24 24 28 29 23 21 22 16 15 21 23 13 16 20 22 25 16 20 20 21 21 21 22 23 28 29 30 32 36 40 41 41 43 45 45 45 45 45 46 47 46 46 46 45 46 48 49 49 51 51 51 50 48 49 48 48 47 47 47 45 47 49 51 49 50 49 48 49 49 50 51 52
19 16 16 22 23 21 26 27 30 27 23 27 30 21 23 25 26 25 22 18 18 12 10 16 19 12 12 18 17 19 19 19 19 19 20 22 22 22 22 23 27 30 32 38 41 41 43 45 45 45 45 46 46 47 48 46 47 46 46 48 49 49 50 51 50 50 48 47 49 47 47 46 46 48 47 47 48 47 46 48 48 48 49 50 51 51
18 32 35 23 21 25 28 30 29 24 27 26 23 16 17 20 19 24 20 20 17 4 10 17 21 13 9 16 19 14 16 20 20 21 21 22 23 24 24 24 24 27 31 35 39 41 42 44 45 46 45 46 46 47 47 47 47 47 47 47 48 49 50 50 50 49 47 47 47 47 47 47 47 47 46 46 46 47 46 47 47 48 49 50 50 51
14 15 24 25 29 23 22 14 15 21 23 21 20 18 17 16 16 14 17 18 5 7 14 18 19 17 6 12 17 21 24 24 23 21 22 23 25 27 27 26 27 28 30 34 38 41 43 45 46 46 45 45 46 46 46 46 47 48 47 47 48 49 49 50 50 48 47 47 47 47 47 47 47 47 46 45 46 47 46 47 47 47 48 50 50 49
15 13 14 15 38 21 17 16 15 13 15 18 21 19 12 11 10 5 8 5 6 11 9 19 19 13 12 16 18 22 23 25 26 23 23 24 26 27 27 27 26 30 33 34 38 41 44 45 46 45 45 45 45 46 46 46 47 48 48 47 47 48 49 49 49 48 47 47 47 47 47 47 48 47 46 45 45 47 47 47 47 47 48 49 50 49
14 21 15 15 13 25 18 18 13 13 11 14 13 16 13 6 1 1 1 6 9 13 19 18 21 13 17 19 23 24 26 27 28 28 28 28 27 26 26 28 28 29 34 37 39 41 44 45 45 46 46 45 46 46 46 46 47 48 48 47 46 47 49 49 48 48 46 47 47 47 48 48 48 46 46 45 45 47 47 47 47 48 49 50 50 50
7 9 14 15 13 20 18 18 15 20 14 12 14 13 14 13 5 2 5 2 5 9 14 20 13 15 12 16 23 26 27 27 27 27 27 30 26 24 24 25 27 31 34 37 39 42 44 45 46 47 47 46 46 46 46 46 47 47 48 48 47 46 48 49 48 48 46 46 47 48 48 48 48 46 46 45 46 47 46 46 47 48 48 49 49 50
9 11 14 18 15 15 12 15 14 9 11 15 16 13 12 13 17 6 12 11 11 9 7 14 13 18 18 20 31 28 27 26 29 25 28 24 24 23 23 24 25 28 31 36 40 42 43 44 46 47 47 47 46 46 46 46 47 47 48 48 47 46 48 48 48 47 46 46 47 47 48 48 48 48 46 45 47 47 47 47 47 48 48 49 49 49
12 12 15 19 15 15 17 18 15 9 12 17 10 15 15 19 16 13 14 19 12 12 5 9 17 17 22 20 22 26 24 22 24 23 22 23 22 23 23 24 24 26 28 31 35 40 42 44 45 47 47 47 47 47 47 47 47 47 48 48 49 48 48 48 49 47 47 46 46 47 47 48 48 47 45 44 45 46 47 47 47 47 48 48 48 49
14 13 21 13 12 16 18 15 17 18 15 11 11 12 19 22 21 14 5 8 3 3 7 13 12 11 13 13 22 21 21 20 22 23 21 24 23 22 23 24 25 26 28 30 31 32 36 43 45 46 47 48 49 49 49 48 48 48 48 48 49 49 48 48 48 48 47 46 46 47 47 47 48 48 46 45 45 46 46 47 47 46 47 47 48 49
17 10 15 16 16 16 19 15 16 18 19 15 17 17 18 13 10 22 14 4 3 2 0 12 14 14 14 15 18 16 20 19 21 22 21 21 22 23 24 24 25 27 30 32 33 34 35 36 40 44 46 48 49 50 50 50 50 50 49 49 49 49 50 49 49 48 48 47 47 47 47 47 47 48 48 46 45 46 45 46 46 46 46 47 48 50
22 11 16 19 16 18 16 15 12 18 18 23 17 15 22 19 19 13 14 18 12 -0 3 10 11 7 16 17 20 18 22 22 21 22 22 23 23 25 25 26 27 28 30 32 33 35 36 36 37 40 44 46 47 48 50 50 51 50 50 50 49 50 50 50 49 49 48 48 49 48 48 48 47 47 47 47 45 46 45 45 46 46 46 46 49 48
17 18 8 16 20 17 13 20 18 18 17 18 17 17 15 19 20 16 19 13 12 3 2 2 2 8 17 22 23 21 23 22 22 22 24 24 24 24 25 27 28 29 31 32 34 36 37 38 38 39 40 41 45 47 48 49 50 51 50 50 50 50 50 50 50 49 48 48 48 48 49 48 48 47 47 46 46 46 46 45 47 46 46 47 48 48
18 16 14 22 17 17 17 20 20 20 23 23 20 20 14 14 13 11 14 18 16 11 6 3 7 16 20 31 30 23 23 26 24 24 25 25 25 26 27 28 29 31 32 33 35 36 37 38 38 41 39 40 41 43 45 47 48 49 50 51 50 50 50 50 50 50 49 50 50 49 49 49 48 48 47 46 46 46 46 45 46 46 47 47 47 47
24 23 20 15 18 19 18 20 23 20 23 24 18 18 19 23 20 16 11 16 19 17 14 15 7 14 27 29 31 31 29 27 25 24 25 27 28 28 30 30 32 33 34 34 35 36 37 37 37 38 39 39 40 40 42 44 46 48 49 49 50 50 50 50 51 51 50 50 49 49 49 49 49 48 47 46 46 46 46 46 46 47 46 46 46 47
43 17 16 19 20 19 18 17 21 21 15 14 16 20 18 16 22 19 17 19 16 15 16 12 10 15 25 31 31 29 29 29 25 25 26 28 29 30 31 32 33 34 35 36 36 36 37 37 37 38 38 38 39 39 40 42 43 45 47 49 49 50 50 50 51 51 51 50 50 50 49 48 49 48 47 46 46 46 46 46 46 47 46 46 46 46
15 22 18 12 10 14 15 17 17 18 19 19 14 17 17 19 20 22 21 20 7 16 18 15 12 10 24 32 29 28 25 24 25 26 29 28 29 30 31 33 34 35 35 35 36 36 36 37 38 38 38 39 39 39 40 41 41 43 44 46 49 50 50 50 50 51 51 50 50 50 50 49 48 48 47 46 46 46 46 46 46 47 46 45 45 45
17 22 17 11 8 6 3 2 8 10 15 19 19 17 14 17 17 15 6 14 6 13 16 11 7 17 22 25 23 27 27 24 27 28 32 29 30 30 31 34 35 35 36 36 36 36 36 37 38 38 38 39 39 40 40 41 41 42 43 44 46 47 50 50 51 51 51 51 50 50 50 49 48 48 47 47 46 46 46 46 46 46 46 45 45 45
19 23 21 18 16 14 14 13 16 23 17 14 15 15 15 21 21 19 14 9 10 12 15 16 15 14 20 20 19 22 25 23 26 30 29 29 32 32 31 33 36 36 36 36 36 36 36 37 37 38 38 39 39 39 40 41 41 41 42 43 45 46 47 49 50 51 51 51 50 50 49 49 48 48 48 47 46 46 46 46 46 46 45 45 44 44
22 15 20 21 19 17 15 14 15 23 16 16 13 13 14 19 19 16 10 12 16 10 10 16 20 12 15 16 18 20 23 25 27 28 29 30 31 31 32 33 37 35 34 34 34 34 35 36 37 38 39 40 40 40 39 41 41 41 42 42 43 44 45 46 48 50 51 51 50 50 49 49 48 48 48 48 46 47 46 46 46 45 45 45 44 43
22 16 20 21 20 20 20 18 18 19 18 16 16 17 16 17 18 14 13 18 16 10 10 15 18 14 17 18 19 22 23 25 29 28 29 30 31 32 32 32 32 33 33 33 33 33 34 34 35 37 38 38 39 39 39 40 41 41 41 41 42 43 43 45 46 48 50 51 51 50 50 50 49 48 48 47 47 47 47 46 45 45 45 45 44 44
22 16 21 20 20 19 20 18 20 19 19 17 18 18 17 18 18 17 16 19 17 15 16 17 16 16 18 18 21 24 27 27 27 30 31 31 31 32 32 31 31 32 32 33 33 33 34 34 35 36 37 37 37 38 39 40 40 41 41 41 41 41 42 44 45 47 49 50 51 51 50 49 49 48 47 47 47 46 46 46 45 45 44 44 43 42
22 17 26 22 19 19 20 24 19 18 19 18 18 17 17 19 18 19 19 19 22 20 20 16 14 17 20 23 25 27 30 31 31 31 31 30 31 32 32 31 31 31 31 33 32 33 33 34 34 35 36 36 37 37 38 39 40 41 41 40 40 40 41 43 44 46 48 49 51 51 50 49 49 48 47 47 47 47 46 46 46 45 45 43 42 41
20 16 23 21 14 16 21 20 19 19 18 17 17 19 18 19 18 18 15 20 17 16 15 14 12 15 17 21 27 30 31 30 29 29 29 30 31 32 31 31 31 31 32 32 32 33 33 33 33 34 35 36 36 37 37 38 39 40 40 40 40 40 41 43 44 45 47 49 50 50 50 49 48 47 47 47 46 46 46 46 45 43 43 43 42 41
20 18 16 16 14 13 20 18 17 19 19 17 18 19 20 20 19 20 19 22 21 17 12 8 15 17 19 26 29 30 29 28 28 30 29 29 30 31 31 31 31 31 31 32 33 34 33 33 33 34 35 36 36 37 38 38 39 40 40 40 40 41 41 42 43 44 46 48 49 49 49 48 48 47 46 46 46 46 46 45 44 43 43 42 41 41
24 20 14 20 7 8 18 21 20 13 10 10 18 23 22 20 19 17 17 18 20 19 19 18 18 21 26 29 30 30 29 28 29 28 29 29 29 30 31 31 31 31 31 32 33 33 33 33 34 35 35 36 36 37 38 39 40 40 40 40 40 40 41 42 43 44 45 47 48 49 49 48 48 46 46 46 46 46 45 45 44 43 43 42 41 39
22 22 15 20 12 11 13 14 10 9 10 14 21 24 23 21 20 19 19 20 21 22 25 26 27 27 29 30 29 29 30 31 31 32 32 33 32 31 31 31 31 31 31 31 32 32 33 33 34 34 35 35 36 37 38 39 39 39 39 39 39 40 41 42 43 44 45 46 48 48 48 48 47 46 46 46 46 45 44 44 42 42 42 41 40 39
14 17 14 15 12 9 9 7 3 6 15 21 21 26 27 24 22 20 18 20 24 26 26 26 28 28 29 29 29 30 30 31 32 33 34 34 34 33 32 31 30 31 31 31 32 33 33 34 34 35 35 37 37 37 38 38 39 38 39 39 39 40 41 42 43 44 44 45 47 47 48 48 47 46 46 46 45 44 43 43 42 42 42 41 40 39
22 21 15 14 15 10 5 9 12 15 16 16 15 24 26 22 24 19 9 15 22 26 27 27 28 28 28 28 29 29 29 28 27 28 28 30 32 34 33 32 30 30 31 32 33 33 34 35 35 35 36 36 37 37 38 38 38 39 39 39 39 40 41 41 42 43 44 45 46 47 48 48 47 46 46 46 45 44 44 43 42 41 40 39 38 37
22 15 16 14 11 13 11 6 5 7 7 8 20 24 27 28 28 27 19 17 24 25 27 27 27 26 26 26 26 27 27 25 22 22 22 23 29 32 33 33 33 33 33 33 34 34 35 35 36 36 37 36 37 38 38 38 38 38 38 38 39 39 40 41 42 43 44 45 46 47 47 47 47 46 46 46 45 44 43 42 42 41 41 39 37 37
22 22 19 19 12 11 11 8 4 5 7 11 21 26 27 27 29 28 18 18 22 23 24 27 26 26 26 25 26 27 25 21 21 20 21 22 24 29 32 33 33 32 33 34 35 35 36 36 36 37 37 37 37 37 38 38 38 37 38 38 39 39 40 41 42 43 44 45 46 47 47 48 47 46 45 45 44 43 42 42 41 41 41 41 40 38
20 14 13 14 13 11 7 9 9 8 9 25 27 28 28 28 28 22 15 11 21 24 23 25 25 25 26 26 26 27 25 20 22 21 22 24 26 27 29 31 33 35 36 36 36 36 36 37 37 36 36 36 36 37 37 37 37 38 38 39 39 39 40 41 42 43 44 45 46 46 47 48 47 46 46 44 43 43 43 42 41 41 41 40 39 38
14 14 15 10 9 14 17 10 11 14 22 27 28 29 29 32 25 19 15 20 28 28 28 27 26 26 26 26 28 25 29 28 25 25 28 31 33 33 34 35 35 36 36 36 36 38 36 36 36 36 36 36 36 37 37 37 37 38 38 39 39 39 40 41 42 43 44 45 46 46 47 47 47 46 46 44 44 43 43 42 41 40 40 38 37 37
8 10 12 10 10 9 7 12 14 13 22 27 28 28 29 19 16 11 21 27 25 26 34 32 29 31 29 30 30 30 29 29 31 32 33 33 33 32 33 33 34 34 35 36 37 37 36 36 36 36 36 36 37 37 37 37 37 38 39 39 39 40 40 41 42 43 44 45 46 47 47 47 46 46 45 45 44 42 42 43 42 41 40 39 37 35
12 9 4 8 8 7 8 9 6 6 22 28 30 21 23 17 17 21 21 26 28 28 29 30 31 31 32 31 32 32 32 31 31 31 31 31 32 32 32 32 33 33 34 34 34 35 36 36 36 35 36 36 36 37 37 38 38 38 39 40 40 41 41 42 43 43 44 45 46 47 47 47 46 45 44 43 42 41 41 41 41 39 38 36 35 34
18 10 7 7 17 12 7 7 8 14 17 28 22 17 21 22 21 21 25 25 29 30 30 29 30 31 31 31 30 31 31 31 31 30 30 30 30 31 32 33 33 34 34 35 35 36 36 36 36 36 36 36 37 37 38 38 38 39 40 41 42 42 42 42 43 44 44 45 46 47 46 45 44 43 43 43 42 41 40 39 38 37 36 35 34 33
21 17 17 14 21 13 11 10 17 21 25 26 27 25 24 23 24 24 25 28 26 25 31 30 30 30 31 31 31 31 31 30 30 30 30 30 30 31 32 33 33 34 34 35 35 36 36 36 36 36 36 37 37 38 39 39 40 40 41 42 42 42 42 43 43 43 44 46 46 46 45 44 44 44 43 43 42 40 38 36 35 35 33 34 33 33
19 20 22 19 19 21 22 21 22 21 21 22 26 28 23 22 22 26 29 28 28 28 30 29 29 30 31 32 32 31 31 30 30 30 30 30 31 32 34 34 34 34 35 35 35 36 36 36 36 36 37 37 38 39 40 41 42 42 42 43 43 43 43 43 43 43 45 45 45 44 43 43 43 43 42 41 40 39 38 37 37 36 33 33 33 33
20 20 19 15 19 16 13 16 19 20 22 21 21 22 22 23 24 29 30 29 29 29 29 30 31 31 31 31 31 31 31 31 31 31 31 32 32 32 33 33 34 34 35 35 35 36 36 36 37 37 37 38 38 39 41 42 43 44 44 44 44 43 43 43 44 44 45 44 44 44 43 43 43 42 42 40 38 37 37 37 36 35 34 33 32 31
18 21 18 19 18 15 15 17 19 21 22 22 22 21 21 21 23 28 30 30 30 30 30 30 30 30 30 30 30 30 30 31 31 31 31 32 32 32 33 33 34 34 35 36 36 36 36 37 37 37 38 38 39 40 42 44 44 45 45 44 44 43 43 43 44 44 43 43 43 42 42 42 37 39 39 36 34 34 34 35 34 33 33 32 31 31
19 24 18 19 19 21 22 22 23 22 21 20 21 22 22 22 23 24 25 26 28 28 28 28 29 29 29 29 30 30 30 31 31 32 32 32 33 33 33 34 34 35 35 36 36 37 37 38 38 38 39 39 40 42 44 44 45 45 44 44 44 44 44 44 43 43 42 41 41 41 40 40 39 38 37 36 34 33 34 33 32 32 32 32 32 32
23 21 22 19 17 17 17 19 20 17 17 19 20 22 22 23 24 24 25 26 27 27 28 28 28 29 29 30 30 31 30 31 32 32 32 33 33 33 34 34 35 35 36 37 38 38 39 39 39 40 40 41 43 44 44 44 44 44 44 43 44 44 44 44 43 43 42 41 41 39 38 37 36 35 34 34 32 31 30 30 32 31 29 29 33 33
21 21 20 15 12 16 19 20 21 20 20 21 21 22 23 24 24 25 25 26 27 28 29 29 29 29 30 31 31 31 31 32 32 33 32 33 33 34 34 35 35 36 37 38 39 39 40 40 41 41 42 43 43 43 43 44 44 44 44 44 44 44 44 43 42 41 41 40 39 37 34 32 30 29 28 28 28 29 29 29 30 32 32 32 32 33